Argentiere, France 16 day weather forecast

Slopes altitude range -1 m - -1m

Number of lifts: -1 Pistes: -1km

In some cases the lift and piste totals shown are for the ski domain (e.g. Three Valleys) rather than individual resort (e.g. Courchevel)

Overview

The 16 day weather forecast is fully updated 4 times every day.

    • Fri 15 DEC 2017
    • Fri 15
    • -9C -7C
    • Sat 16 DEC 2017
    • Sat 16
    • -11C -9C
    • Sun 17 DEC 2017
    • Sun 17
    • -13C -10C
    • Mon 18 DEC 2017
    • Mon 18
    • -11C -6C
    • Tue 19 DEC 2017
    • Tue 19
    • -14C -4C
    • Wed 20 DEC 2017
    • Wed 20
    • -10C -1C
    • Thu 21 DEC 2017
    • Thu 21
    • -5C 1C
    • Fri 22 DEC 2017
    • Fri 22
    • -6C -1C
    • Sat 23 DEC 2017
    • Sat 23
    • -13C -12C
    • Sun 24 DEC 2017
    • Sun 24
    • -15C -12C
    • Mon 25 DEC 2017
    • Mon 25
    • -7C -5C
    • Tue 26 DEC 2017
    • Tue 26
    • -16C -6C
    • Wed 27 DEC 2017
    • Wed 27
    • -9C -6C
    • Thu 28 DEC 2017
    • Thu 28
    • -10C -5C
    • Fri 29 DEC 2017
    • Fri 29
    • -19C -6C
    • Sat 30 DEC 2017
    • Sat 30
    • -7C -3C

Date:

Time Type 0°C level Temp Chill Snow Cloud Speed Gust Dir Press
3:00 1269m -6°C -6_9 10cm 100% 9mph 13mph 1002mB
6:00 961m -8°C -8_6 8cm 100% 6mph 9mph 1003mB
9:00 900m -9°C -9_6 2cm 99% 6mph 8mph 1003mB
12:00 938m -7°C -7_5 2cm 99% 5mph 7mph 1002mB
15:00 858m -8°C -8_5 3cm 100% 5mph 6mph 1003mB
18:00 575m -8°C -8_6 2cm 100% 6mph 7mph 1004mB
21:00 469m -11°C -11_7 2cm 100% 7mph 9mph 1005mB
0:00 438m -11°C -11_6 2cm 100% 6mph 8mph 1005mB
3:00 437m -11°C -11_3 6cm 100% 3mph 3mph 1007mB
6:00 515m -11°C -11_3 5cm 100% 3mph 5mph 1009mB
9:00 632m -11°C -11_3 2cm 100% 3mph 4mph 1012mB
12:00 738m -9°C -9_5 2cm 100% 5mph 7mph 1014mB
15:00 699m -9°C -9_6 2cm 100% 6mph 9mph 1016mB
18:00 554m -9°C -9_5 2cm 100% 5mph 9mph 1019mB
21:00 462m -11°C -11_4 1cm 100% 4mph 6mph 1022mB
0:00 397m -11°C -11_4 1cm 99% 4mph 6mph 1024mB
3:00 349m -12°C -12_4 1cm 99% 4mph 6mph 1025mB
6:00 283m -12°C -12_5 1cm 98% 5mph 8mph 1027mB
9:00 368m -13°C -13_5 1cm 94% 5mph 7mph 1029mB
12:00 606m -10°C -10_6 1cm 86% 6mph 7mph 1029mB
15:00 354m -10°C -10_5 1cm 59% 5mph 7mph 1030mB
18:00 0m -10°C -10_2 0cm 63% 2mph 3mph 1033mB
21:00 0m -18°C -18_2 0cm 1% 2mph 3mph 1035mB
0:00 0m -18°C -18_2 0cm 17% 2mph 2mph 1035mB
3:00 0m -16°C -16_2 0cm 72% 2mph 3mph 1034mB
6:00 183m -16°C -16_1 0cm 83% 1mph 2mph 1033mB
9:00 958m -11°C -11_4 1cm 98% 4mph 4mph 1031mB
12:00 1143m -6°C -6_4 3cm 99% 4mph 6mph 1028mB
15:00 1076m -6°C -6_6 4cm 100% 6mph 11mph 1027mB
18:00 1021m -6°C -6_5 2cm 99% 5mph 8mph 1029mB
21:00 898m -8°C -8_5 1cm 93% 5mph 7mph 1031mB
0:00 257m -12°C -12_1 1cm 92% 1mph 2mph 1033mB
3:00 18m -14°C -14_3 0cm 74% 3mph 3mph 1033mB
6:00 17m -15°C -15_3 0cm 37% 3mph 3mph 1035mB
9:00 741m -14°C -14_2 0cm 7% 2mph 2mph 1036mB
12:00 1448m -4°C -4_4 0cm 15% 4mph 4mph 1034mB
15:00 839m -4°C -4_2 0cm 13% 2mph 2mph 1035mB
18:00 406m -4°C -4_6 0cm 13% 6mph 7mph 1039mB
21:00 459m -11°C -11_6 0cm 0% 6mph 7mph 1040mB
0:00 477m -11°C -11_4 0cm 1% 4mph 4mph 1040mB
3:00 387m -11°C -11_2 0cm 21% 2mph 3mph 1040mB
6:00 517m -11°C -11_4 0cm 11% 4mph 4mph 1039mB
9:00 1313m -10°C -10_4 0cm 0% 4mph 4mph 1039mB
12:00 2104m -1°C -1_5 0cm 0% 5mph 6mph 1036mB
15:00 1577m -1°C -1_5 0cm 0% 5mph 6mph 1037mB
18:00 1119m -1°C -1_4 0cm 21% 4mph 5mph 1039mB
21:00 1181m -7°C -7_5 0cm 31% 5mph 5mph 1040mB
0:00 1327m -7°C -7_5 0cm 15% 5mph 5mph 1039mB
3:00 1367m -5°C -5_4 0cm 0% 4mph 4mph 1039mB
6:00 1312m -5°C -5_4 0cm 0% 4mph 4mph 1039mB
9:00 2053m -5°C -5_3 0cm 11% 3mph 3mph 1039mB
12:00 3220m 1°C 1_1 0cm 22% 1mph 1mph 1037mB
15:00 2203m 1°C 1_2 0cm 39% 2mph 3mph 1036mB
18:00 1498m 1°C 1_3 0cm 41% 3mph 3mph 1037mB
21:00 1505m -4°C -4_3 0cm 79% 3mph 3mph 1036mB
0:00 1441m -4°C -4_2 0cm 84% 2mph 2mph 1034mB
3:00 1294m -5°C -5_1 0cm 91% 1mph 2mph 1032mB
6:00 1147m -6°C -6_0 0cm 92% 0mph 1mph 1031mB
9:00 1764m -6°C -6_3 0cm 95% 3mph 5mph 1031mB
12:00 1862m -1°C -1_6 0cm 96% 6mph 7mph 1027mB
15:00 1502m -2°C -2_6 1cm 97% 6mph 9mph 1026mB
18:00 1344m -2°C -2_7 1cm 98% 7mph 10mph 1026mB
21:00 969m -8°C -8_9 1cm 99% 9mph 13mph 1027mB
0:00 458m -11°C -11_8 1cm 97% 8mph 12mph 1026mB
3:00 308m -12°C -12_9 1cm 99% 9mph 13mph 1025mB
6:00 237m -13°C -13_8 1cm 99% 8mph 13mph 1025mB
9:00 234m -13°C -13_9 1cm 99% 9mph 13mph 1025mB
12:00 279m -12°C -12_9 1cm 99% 9mph 13mph 1023mB
15:00 208m -12°C -12_9 1cm 100% 9mph 15mph 1022mB
18:00 99m -12°C -12_10 1cm 100% 10mph 15mph 1022mB
21:00 0m -14°C -14_9 2cm 100% 9mph 14mph 1022mB
0:00 0m -14°C -14_9 2cm 100% 9mph 14mph 1022mB
3:00 0m -15°C -15_8 2cm 100% 8mph 12mph 1022mB
6:00 0m -15°C -15_6 1cm 100% 6mph 9mph 1023mB
9:00 32m -15°C -15_5 1cm 97% 5mph 7mph 1024mB
12:00 337m -12°C -12_6 1cm 95% 6mph 7mph 1022mB
15:00 386m -11°C -11_4 1cm 97% 4mph 6mph 1020mB
18:00 379m -11°C -11_3 1cm 98% 3mph 4mph 1020mB
21:00 632m -11°C -11_6 2cm 100% 6mph 8mph 1017mB
0:00 817m -11°C -11_4 3cm 100% 4mph 6mph 1015mB
Afternoon 0.229167mm 0 1091m -5°C -5_9 2cm 99% 9mph 12mph 1011mB
Morning 0.078125mm 0.0625 185m -14°C -14_2 1cm 86% 2mph 4mph 1015mB
Afternoon 0.0104167mm 0 1004m -6°C -6_5 0cm 73% 5mph 8mph 1009mB
Morning 0.322917mm 0.1875 1000m -8°C -8_11 3cm 100% 11mph 20mph 1003mB
Afternoon 0.302083mm 1.25 590m -6°C -6_8 10cm 97% 8mph 12mph 996mB
Morning 0.0208333mm 0 289m -16°C -16_10 0cm 80% 10mph 15mph 988mB
Afternoon 0.0416667mm 0 1019m -5°C -5_7 0cm 100% 7mph 10mph 980mB
Morning 0.015625mm 0 0m -19°C -19_2 0cm 61% 2mph 5mph 996mB
Afternoon 0mm 0 894m -6°C -6_10 0cm 23% 10mph 18mph 994mB
Morning 0.578125mm 0.0625 1178m -7°C -7_13 5cm 100% 13mph 27mph 991mB
Afternoon 0.921875mm 4.375 778m -3°C -3_15 35cm 100% 15mph 27mph 994mB
Morning 1.31771mm 0.6875 971m -8°C -8_15 11cm 100% 15mph 35mph 997mB

16 day outlook at a glance

Forecast issued: 15/12/2017 06:34:29

Chat

Your comments and questions. In a resort? Let us know what it's like!


Characters left 250

For terms and conditions see Readers Comments on the Cookie and privacy policy page.